[[{"header":{"parameterUnit":"m.s-1","parameterCategory":2,"la1":30.2991,"la2":30.254,"lo1":-89.0895,"lo2":-89.0444,"dy":0.0017,"dx":0.0017,"nx":28,"ny":28,"refTime":"2025-04-13T09:00:00:Z","depth":"0","parameterNumber":2,"parameterNumberName":"U-component_of_CURRENTS"},"data":[0,0,0,0,0,0,0,0,0,0,0,0,0,0,0,0,0,0,0,0,0,0,0,0,0,0,0,0,0,0,0,0,0,0,0,0,0,0,0,0,0,0,0,0,0,0,0,0,0,0,0,0,0,0,0,0,0,0,0.1885,0.1887,0,0.205,0.2051,0.2053,0.2098,0.2097,0.2096,0.2095,0.2163,0.2165,0.2168,0,0,0,0,0,0,0,0,0,0,0,0,0,0.1693,0.1695,0.1885,0.1887,0.1889,0.2049,0.2051,0.2054,0.2098,0.2097,0.2096,0.2095,0.2162,0.2165,0.2168,0,0,0,0,0,0,0,0,0,0,0,0,0,0.1807,0.1696,0.1885,0.1931,0.1937,0.2049,0.2051,0.2054,0.2098,0.2097,0.2096,0.2094,0.2161,0.2165,0.2169,0.2219,0,0,0.2181,0.2182,0,0,0,0,0,0,0,0,0.1801,0.1814,0.1922,0.1928,0.1935,0.2053,0.2009,0.2105,0.2099,0.2036,0.2095,0.2094,0.2119,0.2126,0.216,0.2222,0.2225,0.2181,0.2183,0.2185,0.2186,0,0,0,0,0,0,0,0.1793,0.1808,0.1949,0.1925,0.1933,0.1973,0.1987,0.2028,0.208,0.2042,0.2045,0.2066,0.2121,0.2156,0.2161,0.2226,0.2181,0.2184,0.2187,0.2188,0.2293,0.2294,0,0,0,0,0,0,0.1772,0.18,0.1944,0.1954,0.1865,0.1977,0.1993,0.2016,0.2082,0.2092,0.2067,0.2067,0.215,0.2157,0.2164,0.2194,0.2185,0.2189,0.2191,0.2293,0.2293,0.2294,0,0,0,0,0,0,0.1767,0.1783,0.1937,0.1881,0.1904,0.1981,0.2007,0.202,0.2058,0.2102,0.211,0.2091,0.2149,0.2158,0.2195,0.2198,0.219,0.2194,0.2292,0.2293,0.2294,0.2275,0,0,0,0,0,0,0.1761,0.1781,0.1796,0.188,0.1906,0.2016,0.2009,0.2024,0.2072,0.2075,0.2126,0.2131,0.2149,0.2189,0.2199,0.2203,0.2197,0.2292,0.2293,0.2293,0.2276,0.2275,0.2275,0,0,0,0,0,0.1754,0.1793,0.1796,0.1814,0.1923,0.2018,0.2036,0.2085,0.2074,0.211,0.2124,0.213,0.2201,0.2193,0.2205,0.221,0.2291,0.2292,0.2293,0.2276,0.2275,0.2275,0,0,0,0,0,0,0.1733,0.1803,0.1809,0.1869,0.1937,0.2026,0.2071,0.209,0.2134,0.2127,0.2147,0.2155,0.2193,0.2205,0.2196,0.2242,0.2243,0.2247,0.2226,0.2226,0.2226,0.2213,0.22,0,0,0,0,0,0.173,0.1768,0.1843,0.1893,0.1927,0.1993,0.2037,0.2068,0.2117,0.2137,0.2165,0.2186,0.221,0.2218,0.2258,0.2284,0.2356,0.2291,0.2291,0.2291,0.2287,0.2387,0.2397,0.2297,0.2297,0.2297,0,0,0.1747,0.1781,0.1811,0.189,0.1946,0.1996,0.2017,0.2092,0.2109,0.2135,0.2169,0.2203,0.2222,0.2254,0.2269,0.2258,0.237,0.2292,0.2291,0.2288,0.239,0.24,0.2408,0.2298,0.2298,0.2298,0,0,0.1787,0.182,0.1861,0.1911,0.1984,0.2018,0.2034,0.2119,0.2131,0.2173,0.2186,0.2213,0.2261,0.2269,0.2274,0.2297,0.2379,0.2311,0.2286,0.2384,0.2393,0.2402,0.2564,0.2587,0.2294,0.2294,0.2294,0,0.1788,0.1848,0.1894,0.1937,0.1977,0.2019,0.2068,0.209,0.2166,0.2182,0.2177,0.2258,0.2261,0.2289,0.2275,0.2295,0.2395,0.2282,0.2385,0.2395,0.2404,0.2567,0.2593,0.2294,0.2294,0.2294,0.2294,0,0.1855,0.1899,0.1935,0.1979,0.2029,0.2088,0.2118,0.2152,0.2159,0.2183,0.2234,0.2255,0.2307,0.2295,0.2278,0.2338,0.2408,0.2389,0.2385,0.2413,0.2584,0.2612,0.2293,0.2293,0.2293,0.2293,0,0,0.1865,0.1955,0.1965,0.2003,0.2054,0.2115,0.2122,0.2169,0.2202,0.2227,0.229,0.2271,0.2308,0.2316,0.2323,0.2356,0.2498,0.2385,0.239,0.2548,0.2789,0.2826,0.286,0.2509,0.2512,0.2515,0.2904,0,0.1896,0.1974,0.2003,0.2083,0.2142,0.2165,0.2184,0.222,0.2246,0.2318,0.2311,0.2385,0.2307,0.2364,0.2377,0.2489,0.256,0.2398,0.2735,0.2747,0.2776,0.2887,0.2792,0.3127,0.2931,0.2935,0.2939,0,0.195,0.1996,0.2071,0.2158,0.2185,0.2218,0.2287,0.2319,0.2378,0.2408,0.2452,0.2493,0.2554,0.2491,0.2673,0.2588,0.268,0.2742,0.2759,0.2809,0.2831,0.3056,0.3185,0.3027,0.2981,0.2978,0.2975,0,0.1964,0.2051,0.2107,0.2138,0.2226,0.2254,0.2296,0.235,0.2394,0.2501,0.2581,0.2647,0.2753,0.2829,0.2921,0.2839,0.3157,0.3078,0.3209,0.3217,0.3206,0.3205,0.3213,0.322,0.3219,0.3218,0.3216,0,0.1997,0.2058,0.2123,0.2166,0.224,0.2299,0.2375,0.2423,0.2516,0.2605,0.265,0.2764,0.284,0.3005,0.3042,0.3247,0.3281,0.3251,0.3317,0.3203,0.3198,0.3113,0.3052,0.3232,0.3229,0.3226,0.3224,0,0.2033,0.2066,0.2153,0.2234,0.2255,0.2322,0.2411,0.2476,0.2574,0.2711,0.2766,0.2928,0.3159,0.3258,0.3465,0.3459,0.3531,0.3668,0.3559,0.3601,0.3508,0.3453,0.3508,0.341,0.3893,0.3897,0.3899,0,0.2055,0.2104,0.2191,0.2225,0.226,0.2345,0.2394,0.2487,0.2557,0.2802,0.2881,0.3157,0.3311,0.3663,0.3739,0.3922,0.3714,0.3928,0.3693,0.3529,0.3516,0.3333,0.3228,0.3722,0.3723,0.3724,0.3724,0,0.2109,0.2137,0.2204,0.2259,0.2311,0.2372,0.2454,0.2505,0.265,0.278,0.2996,0.3158,0.3523,0.3663,0.3917,0.3987,0.3724,0.395,0.3796,0.3405,0.3194,0.3122,0.3484,0.3731,0.3731,0.373,0.373,0.373,0.2136,0.2192,0.2252,0.2309,0.2347,0.238,0.2406,0.25,0.2612,0.2782,0.2998,0.3181,0.3461,0.3793,0.3891,0.3915,0.3821,0.3752,0.3727,0.3575,0.3355,0.3762,0.4041,0.4042,0.4043,0.4044,0.4045,0,0.2151,0.222,0.2287,0.2335,0.2343,0.2367,0.2427,0.2434,0.252,0.2707,0.2878,0.3108,0.3314,0.3527,0.3713,0.3654,0.3474,0.3543,0.3208,0.3134,0.3536,0.3391,0.3518,0.3518,0.3518,0.3519,0.3519,0.3519,0.2167,0.2236,0.2283,0.2307,0.2319,0.2296,0.2302,0.2321,0.2394,0.2503,0.26,0.2768,0.3094,0.3376,0.3412,0.3364,0.3085,0.301,0.2941,0.3151,0.3162,0.3173,0.3014,0.306,0.306,0.2374,0.2369,0.2366]},{"header":{"parameterUnit":"m.s-1","parameterCategory":2,"la1":30.2991,"la2":30.254,"lo1":-89.0895,"lo2":-89.0444,"dy":0.0017,"dx":0.0017,"nx":28,"ny":28,"refTime":"2025-04-13T09:00:00:Z","depth":"0","parameterNumber":3,"parameterNumberName":"V-component_of_CURRENTS"},"data":[0,0,0,0,0,0,0,0,0,0,0,0,0,0,0,0,0,0,0,0,0,0,0,0,0,0,0,0,0,0,0,0,0,0,0,0,0,0,0,0,0,0,0,0,0,0,0,0,0,0,0,0,0,0,0,0,0,0,0.009,0.009,0,0.0052,0.0052,0.0051,0.0047,0.0047,0.0048,0.0048,0.003,0.0029,0.0029,0,0,0,0,0,0,0,0,0,0,0,0,0,0.0176,0.0174,0.009,0.009,0.0089,0.0052,0.0052,0.0051,0.0047,0.0047,0.0048,0.0048,0.003,0.003,0.0029,0,0,0,0,0,0,0,0,0,0,0,0,0,0.0139,0.0174,0.009,0.0082,0.008,0.0052,0.0051,0.0051,0.0047,0.0048,0.0048,0.0048,0.0031,0.003,0.0029,0.0014,0,0,0.0025,0.0025,0,0,0,0,0,0,0,0,0.0141,0.0136,0.0083,0.0082,0.0081,0.0054,0.0075,0.0039,0.0047,0.0061,0.0048,0.0049,0.0039,0.0037,0.003,0.0013,0.0012,0.0025,0.0024,0.0024,0.0024,0,0,0,0,0,0,0,0.0144,0.0138,0.0076,0.0083,0.0081,0.0085,0.008,0.0068,0.0049,0.006,0.0059,0.0053,0.0038,0.0032,0.003,0.0012,0.0025,0.0024,0.0024,0.0023,-0.0007,-0.0007,0,0,0,0,0,0,0.0144,0.014,0.0077,0.0075,0.0111,0.0083,0.0078,0.0063,0.0049,0.0047,0.0052,0.0053,0.0033,0.0031,0.0029,0.0028,0.0024,0.0023,0.0022,-0.0007,-0.0007,-0.0007,0,0,0,0,0,0,0.0146,0.0139,0.0079,0.0107,0.0099,0.0081,0.0064,0.0062,0.0058,0.0043,0.0042,0.0051,0.0033,0.0031,0.0025,0.0027,0.0022,0.0021,-0.0007,-0.0007,-0.0007,0.0014,0,0,0,0,0,0,0.0149,0.0139,0.0131,0.0106,0.0097,0.0071,0.0064,0.0061,0.0052,0.0052,0.0041,0.004,0.0034,0.0026,0.0024,0.0025,0.0021,-0.0007,-0.0007,-0.0007,0.0014,0.0015,0.0016,0,0,0,0,0,0.0152,0.0143,0.013,0.0123,0.0085,0.0071,0.0068,0.0058,0.0052,0.0055,0.0045,0.004,0.0023,0.0025,0.0022,0.0023,-0.0007,-0.0007,-0.0007,0.0013,0.0015,0.0016,0,0,0,0,0,0,0.0181,0.0141,0.0127,0.0107,0.0093,0.0071,0.007,0.0058,0.0051,0.0052,0.0038,0.0036,0.003,0.0022,0.0025,0.0013,0.0007,0.0006,0.0024,0.0025,0.0026,0.0072,0.002,0,0,0,0,0,0.018,0.0158,0.013,0.0115,0.0109,0.0088,0.0081,0.0072,0.006,0.0057,0.0046,0.0035,0.0024,0.0022,0.0011,0.0005,0.0017,0.0003,0.0004,0.0005,0.0039,0.0047,0.0052,-0.0008,-0.0008,-0.0008,0,0,0.0193,0.0161,0.0154,0.0119,0.0107,0.0109,0.0086,0.0078,0.0082,0.0056,0.0059,0.0037,0.0022,0.0017,0.0013,0.0012,0.0024,0.0005,0.0006,0.0041,0.0047,0.0053,0.0059,-0.0009,-0.0009,-0.0009,0,0,0.0215,0.0175,0.0176,0.0161,0.0138,0.0123,0.0122,0.0101,0.0095,0.0085,0.0069,0.0059,0.0034,0.0034,0.0028,0.0029,0.0027,0.001,0.0057,0.0062,0.0068,0.0074,0.0083,0.0089,0.0014,0.0014,0.0014,0,0.0227,0.0224,0.0178,0.0178,0.0178,0.0133,0.0154,0.0134,0.0113,0.0124,0.0092,0.0083,0.0051,0.0073,0.006,0.0035,0.0038,0.0053,0.0066,0.0072,0.0077,0.0085,0.0092,0.0015,0.0015,0.0015,0.0015,0,0.0257,0.0258,0.0259,0.0241,0.0232,0.0238,0.0208,0.0202,0.0178,0.0169,0.0177,0.0136,0.0147,0.011,0.0078,0.0101,0.0089,0.0064,0.0068,0.0085,0.0092,0.0098,0.0016,0.0016,0.0016,0.0015,0,0,0.028,0.0283,0.0282,0.0311,0.027,0.0279,0.0271,0.0279,0.0318,0.0263,0.0321,0.0253,0.0243,0.0236,0.0196,0.0182,0.0185,0.0135,0.0135,0.0156,0.0202,0.0189,0.0195,0.0156,0.0157,0.0158,0.0188,0,0.0326,0.0364,0.0338,0.0389,0.0423,0.038,0.0396,0.039,0.0378,0.0414,0.0366,0.0399,0.0287,0.0309,0.0267,0.0225,0.0205,0.018,0.0176,0.0177,0.0172,0.0203,0.0185,0.0211,0.0194,0.0195,0.0196,0,0.0372,0.0397,0.046,0.051,0.0521,0.0538,0.0581,0.0591,0.0604,0.0603,0.0602,0.0574,0.0559,0.0461,0.0393,0.0381,0.0297,0.0241,0.0241,0.0237,0.0177,0.0193,0.0223,-0.0016,0.0206,0.0205,0.0205,0,0.0446,0.0487,0.055,0.0558,0.0595,0.0628,0.0648,0.0664,0.0718,0.075,0.0813,0.0756,0.0787,0.0661,0.0513,0.0464,0.0441,0.0364,0.0277,0.0275,0.0269,0.0264,0.0084,0.0322,0.0322,0.0322,0.0322,0,0.0511,0.0567,0.0603,0.0641,0.0739,0.0733,0.0845,0.0846,0.0916,0.1026,0.0942,0.1032,0.0838,0.0787,0.0602,0.0477,0.0511,0.0315,0.0292,0.0272,0.0268,0.0067,-0.0027,0.0323,0.0323,0.0323,0.0323,0,0.0596,0.0606,0.0701,0.0762,0.0782,0.0864,0.0968,0.1059,0.1108,0.1256,0.1287,0.127,0.1207,0.1,0.0831,0.0642,0.0389,0.0431,0.0421,0.0396,0.0074,-0.0015,-0.0096,-0.0167,0.0352,0.0352,0.0352,0,0.0643,0.0702,0.0792,0.0848,0.0882,0.0996,0.1076,0.1142,0.1248,0.1416,0.1505,0.1508,0.152,0.1268,0.0928,0.0638,0.0427,0.043,0.0322,0.008,-0.0037,-0.009,-0.0149,0.0315,0.0314,0.0314,0.0314,0,0.0754,0.0786,0.0859,0.0962,0.1055,0.1182,0.1306,0.1418,0.1537,0.167,0.1833,0.1873,0.1658,0.1369,0.0973,0.0746,0.0293,0.0417,0.017,-0.006,-0.0128,-0.0216,0.0265,0.0312,0.0312,0.0312,0.0312,0.0312,0.0835,0.0912,0.0991,0.1091,0.1194,0.1345,0.1472,0.1617,0.1806,0.2011,0.2046,0.2101,0.1686,0.1149,0.0872,0.0256,0.0286,0.002,-0.0059,-0.0085,-0.0183,0.0301,0.0312,0.0312,0.0312,0.0312,0.0313,0,0.0922,0.0998,0.1104,0.1235,0.1361,0.1396,0.1603,0.1743,0.1963,0.2112,0.224,0.2001,0.1502,0.0977,0.0214,-0.0173,-0.0304,-0.0422,-0.0542,-0.0573,-0.0153,-0.0192,-0.0294,-0.0294,-0.0294,-0.0293,-0.0293,-0.0293,0.0976,0.1085,0.1137,0.1342,0.1442,0.163,0.1757,0.1944,0.2064,0.2216,0.2192,0.2177,0.1737,0.0398,-0.0475,-0.067,-0.0946,-0.0994,-0.1115,-0.0912,-0.0879,-0.0848,-0.0914,-0.1166,-0.1166,-0.1514,-0.1518,-0.1521]}],[{"header":{"parameterUnit":"m.s-1","parameterCategory":2,"la1":30.2991,"la2":30.254,"lo1":-89.0895,"lo2":-89.0444,"dy":0.0017,"dx":0.0017,"nx":28,"ny":28,"refTime":"2025-04-13T09:00:00:Z","depth":"2","parameterNumber":2,"parameterNumberName":"U-component_of_CURRENTS"},"data":[0,0,0,0,0,0,0,0,0,0,0,0,0,0,0,0,0,0,0,0,0,0,0,0,0,0,0,0,0,0,0,0,0,0,0,0,0,0,0,0,0,0,0,0,0,0,0,0,0,0,0,0,0,0,0,0,0,0,0.1488,0.1488,0,0.153,0.1531,0.1533,0.153,0.1528,0.1527,0.1525,0.1613,0.1617,0.1621,0,0,0,0,0,0,0,0,0,0,0,0,0,0.1469,0.147,0.1488,0.1488,0.1487,0.1529,0.1531,0.1533,0.153,0.1528,0.1526,0.1524,0.1612,0.1617,0.1622,0,0,0,0,0,0,0,0,0,0,0,0,0,0.1503,0.147,0.1488,0.1481,0.148,0.1529,0.1531,0.1534,0.1531,0.1528,0.1526,0.1523,0.1611,0.1616,0.1622,0.1714,0,0,0.1641,0.1644,0,0,0,0,0,0,0,0,0.1501,0.1505,0.1483,0.1481,0.148,0.151,0.1556,0.1592,0.1532,0.1525,0.1525,0.1522,0.1577,0.1586,0.1617,0.1718,0.1722,0.1641,0.1645,0.1648,0.1649,0,0,0,0,0,0,0,0.1499,0.1504,0.1518,0.1482,0.148,0.1496,0.1499,0.1564,0.1577,0.1526,0.1522,0.1507,0.1578,0.1612,0.1619,0.1723,0.1641,0.1647,0.165,0.1653,0.1824,0.1825,0,0,0,0,0,0,0.1467,0.1502,0.1516,0.1518,0.1469,0.1497,0.1501,0.1514,0.1575,0.1577,0.1509,0.1507,0.1603,0.1612,0.1622,0.1684,0.1648,0.1653,0.1657,0.1823,0.1824,0.1825,0,0,0,0,0,0,0.1467,0.147,0.1514,0.1498,0.1503,0.1499,0.1515,0.1516,0.157,0.1559,0.1565,0.1561,0.1601,0.1614,0.1656,0.1688,0.1656,0.1662,0.1822,0.1824,0.1825,0.1839,0,0,0,0,0,0,0.1467,0.1471,0.1474,0.1497,0.1502,0.1555,0.1516,0.1518,0.1557,0.1555,0.1606,0.161,0.16,0.1647,0.1662,0.1696,0.1666,0.1821,0.1823,0.1824,0.1837,0.1841,0.1844,0,0,0,0,0,0.1467,0.1457,0.1475,0.1476,0.1508,0.1555,0.1563,0.1558,0.1562,0.1599,0.1599,0.1609,0.1668,0.1653,0.1671,0.1707,0.182,0.1822,0.1824,0.1836,0.184,0.1844,0,0,0,0,0,0,0.1445,0.1456,0.1476,0.1471,0.1522,0.1549,0.1569,0.159,0.1631,0.1599,0.1632,0.1637,0.17,0.1701,0.1684,0.1758,0.1745,0.1751,0.1748,0.1752,0.1755,0.1745,0.1671,0,0,0,0,0,0.1446,0.1453,0.1487,0.1496,0.1527,0.1574,0.1594,0.1577,0.1603,0.1621,0.1688,0.1707,0.1727,0.1732,0.1777,0.182,0.1871,0.1851,0.1854,0.1856,0.1859,0.1934,0.1944,0.1832,0.1832,0.1832,0,0,0.1451,0.1447,0.146,0.1494,0.1542,0.1586,0.1585,0.1596,0.1612,0.1624,0.1718,0.1755,0.1751,0.1787,0.1813,0.1783,0.1928,0.1859,0.1861,0.1862,0.1937,0.1948,0.1958,0.1834,0.1833,0.1833,0,0,0.1451,0.1471,0.1487,0.1534,0.1556,0.1577,0.1597,0.1665,0.1678,0.1731,0.1745,0.1786,0.1863,0.1854,0.1847,0.1901,0.1968,0.1931,0.1912,0.1984,0.1994,0.2003,0.2136,0.2157,0.1898,0.1898,0.1898,0,0.145,0.1484,0.1505,0.154,0.1586,0.1593,0.1649,0.1654,0.1724,0.1753,0.1744,0.1885,0.1877,0.191,0.1887,0.191,0.1987,0.1894,0.1989,0.1999,0.2008,0.2141,0.2164,0.1899,0.1899,0.1899,0.1899,0,0.1481,0.1519,0.1544,0.1602,0.1653,0.1688,0.1706,0.1746,0.1769,0.179,0.188,0.1891,0.1968,0.1967,0.1915,0.199,0.2043,0.2014,0.1979,0.202,0.2159,0.2183,0.1901,0.19,0.19,0.19,0,0,0.1475,0.1549,0.1568,0.1626,0.1685,0.1731,0.175,0.1802,0.1834,0.1878,0.198,0.1965,0.2016,0.2011,0.2018,0.2026,0.2139,0.2025,0.2028,0.2159,0.2369,0.2251,0.2267,0.2134,0.2137,0.2139,0.2461,0,0.1519,0.159,0.162,0.1729,0.18,0.1824,0.187,0.1883,0.1909,0.2002,0.1979,0.2081,0.2016,0.2071,0.207,0.2142,0.2194,0.2059,0.2309,0.2317,0.2206,0.2285,0.2039,0.2288,0.2484,0.2488,0.249,0,0.1563,0.1606,0.1716,0.1819,0.1861,0.191,0.2009,0.2043,0.2086,0.2111,0.2173,0.2209,0.2263,0.2194,0.2335,0.2264,0.2316,0.2347,0.2361,0.2253,0.2239,0.2268,0.2324,0.253,0.2527,0.2524,0.2521,0,0.1586,0.1685,0.1776,0.1823,0.1925,0.1973,0.2032,0.2089,0.213,0.2224,0.2298,0.2364,0.2461,0.2498,0.253,0.2463,0.2696,0.2624,0.2595,0.2593,0.2428,0.2402,0.274,0.2739,0.2738,0.2738,0.2737,0,0.1633,0.1712,0.179,0.1853,0.1946,0.2026,0.2129,0.2167,0.2259,0.2332,0.2394,0.2489,0.2536,0.2649,0.2636,0.2704,0.2808,0.2626,0.2655,0.243,0.2401,0.2619,0.2601,0.275,0.2747,0.2745,0.2743,0,0.1657,0.1717,0.1813,0.1923,0.1963,0.2038,0.2171,0.2229,0.234,0.2452,0.2502,0.2644,0.2771,0.2828,0.2939,0.2877,0.2924,0.2929,0.2684,0.2671,0.2762,0.2741,0.2941,0.294,0.2938,0.2937,0.2936,0,0.1681,0.1717,0.1847,0.1896,0.1952,0.2065,0.2132,0.2244,0.2305,0.2523,0.2575,0.2769,0.2794,0.2965,0.2903,0.293,0.2981,0.276,0.2517,0.2768,0.2779,0.2759,0.2741,0.237,0.2364,0.236,0.2356,0,0.1662,0.1698,0.176,0.1886,0.1968,0.2055,0.2162,0.2206,0.2346,0.2436,0.2559,0.2607,0.2754,0.2643,0.2706,0.2666,0.2705,0.2661,0.3046,0.23,0.2238,0.2244,0.2244,0.2315,0.2319,0.2322,0.2324,0.2326,0.1637,0.1634,0.171,0.182,0.193,0.2008,0.2035,0.2117,0.2178,0.2226,0.2382,0.2393,0.2438,0.2342,0.2315,0.2329,0.2454,0.2354,0.2366,0.2383,0.2202,0.2133,0.2166,0.2169,0.2171,0.2174,0.2176,0,0.1539,0.155,0.1637,0.1739,0.1819,0.1929,0.2016,0.1994,0.1992,0.204,0.2047,0.1904,0.1852,0.1957,0.1874,0.1866,0.1825,0.1835,0.1762,0.1802,0.1839,0.1627,0.1441,0.1439,0.1437,0.1435,0,0,0.1493,0.1472,0.1491,0.1558,0.1679,0.1733,0.1757,0.173,0.1752,0.1633,0.1606,0.1682,0.1843,0.1604,0.1577,0.1509,0.1645,0.1457,0.2038,0.1989,0.2023,0.2123,0.184,0,0,0,0,0]},{"header":{"parameterUnit":"m.s-1","parameterCategory":2,"la1":30.2991,"la2":30.254,"lo1":-89.0895,"lo2":-89.0444,"dy":0.0017,"dx":0.0017,"nx":28,"ny":28,"refTime":"2025-04-13T09:00:00:Z","depth":"2","parameterNumber":3,"parameterNumberName":"V-component_of_CURRENTS"},"data":[0,0,0,0,0,0,0,0,0,0,0,0,0,0,0,0,0,0,0,0,0,0,0,0,0,0,0,0,0,0,0,0,0,0,0,0,0,0,0,0,0,0,0,0,0,0,0,0,0,0,0,0,0,0,0,0,0,0,-0.0128,-0.013,0,-0.0241,-0.0242,-0.0243,-0.0307,-0.0308,-0.0308,-0.0309,-0.0319,-0.0318,-0.0318,0,0,0,0,0,0,0,0,0,0,0,0,0,0.0015,0.0013,-0.0128,-0.013,-0.0132,-0.0241,-0.0242,-0.0244,-0.0307,-0.0308,-0.0308,-0.0309,-0.0319,-0.0318,-0.0318,0,0,0,0,0,0,0,0,0,0,0,0,0,-0.0064,0.0012,-0.0128,-0.0179,-0.0185,-0.0241,-0.0242,-0.0244,-0.0307,-0.0308,-0.0308,-0.0309,-0.0319,-0.0318,-0.0318,-0.0299,0,0,-0.0317,-0.0317,0,0,0,0,0,0,0,0,-0.006,-0.0069,-0.017,-0.0176,-0.0183,-0.0264,-0.0196,-0.0259,-0.0307,-0.0257,-0.0309,-0.031,-0.0292,-0.0294,-0.031,-0.03,-0.03,-0.0317,-0.0317,-0.0316,-0.0316,0,0,0,0,0,0,0,-0.0054,-0.0065,-0.0169,-0.0172,-0.018,-0.0203,-0.0215,-0.0208,-0.0264,-0.0261,-0.0267,-0.0285,-0.0295,-0.031,-0.0311,-0.03,-0.0317,-0.0317,-0.0316,-0.0316,-0.029,-0.029,0,0,0,0,0,0,-0.0046,-0.0059,-0.0166,-0.0173,-0.0126,-0.0205,-0.0218,-0.0234,-0.0266,-0.0274,-0.0284,-0.0288,-0.0311,-0.0311,-0.0311,-0.0286,-0.0316,-0.0316,-0.0316,-0.0291,-0.029,-0.029,0,0,0,0,0,0,-0.0042,-0.0054,-0.0161,-0.0122,-0.0137,-0.0207,-0.0225,-0.0236,-0.0244,-0.0286,-0.0291,-0.0281,-0.0311,-0.0312,-0.0302,-0.0287,-0.0316,-0.0316,-0.0291,-0.0291,-0.029,-0.0238,0,0,0,0,0,0,-0.0038,-0.0052,-0.0062,-0.0121,-0.014,-0.0188,-0.0225,-0.0238,-0.0257,-0.0262,-0.0284,-0.0287,-0.0312,-0.0303,-0.0302,-0.0287,-0.0315,-0.0292,-0.0291,-0.029,-0.024,-0.0236,-0.0232,0,0,0,0,0,-0.0032,-0.0058,-0.0062,-0.0075,-0.0151,-0.0188,-0.0199,-0.0249,-0.0255,-0.0258,-0.0272,-0.0286,-0.0297,-0.0302,-0.0301,-0.0285,-0.0292,-0.0291,-0.029,-0.0242,-0.0237,-0.0232,0,0,0,0,0,0,-0.0009,-0.0068,-0.0074,-0.0117,-0.014,-0.02,-0.0217,-0.0233,-0.0248,-0.0262,-0.0273,-0.0277,-0.0263,-0.0279,-0.0283,-0.0277,-0.0299,-0.0298,-0.0263,-0.0257,-0.0253,-0.0231,-0.0315,0,0,0,0,0,-0.0003,-0.0031,-0.0076,-0.0103,-0.0112,-0.015,-0.0171,-0.0211,-0.0236,-0.0244,-0.0238,-0.0251,-0.0259,-0.0261,-0.0269,-0.0257,-0.0274,-0.025,-0.0245,-0.0241,-0.0224,-0.0246,-0.0242,-0.0286,-0.0286,-0.0286,0,0,0.0001,-0.0037,-0.0052,-0.0098,-0.0119,-0.0125,-0.0164,-0.0207,-0.0206,-0.024,-0.0212,-0.0227,-0.0251,-0.0248,-0.0244,-0.0258,-0.0238,-0.024,-0.0236,-0.0221,-0.0244,-0.024,-0.0236,-0.0286,-0.0286,-0.0286,0,0,0.0005,-0.0032,-0.0039,-0.0057,-0.0102,-0.0126,-0.0125,-0.0161,-0.0171,-0.0165,-0.0186,-0.0186,-0.0184,-0.02,-0.0211,-0.0182,-0.021,-0.0187,-0.015,-0.0171,-0.0168,-0.0165,-0.0183,-0.0182,-0.0191,-0.0191,-0.019,0,0.0015,0.0003,-0.0044,-0.0049,-0.0047,-0.0108,-0.009,-0.0121,-0.0144,-0.0129,-0.0153,-0.0133,-0.0163,-0.0147,-0.0157,-0.0169,-0.0187,-0.0168,-0.0165,-0.0162,-0.016,-0.0179,-0.0179,-0.0188,-0.0188,-0.0188,-0.0189,0,0.0023,0.0022,0.0017,0.0008,0.0004,-0.0009,-0.004,-0.0045,-0.0055,-0.0068,-0.0042,-0.0077,-0.0061,-0.0082,-0.0119,-0.0107,-0.0127,-0.0152,-0.0176,-0.0152,-0.0175,-0.0175,-0.0184,-0.0185,-0.0186,-0.0187,0,0,0.0035,0.003,0.0034,0.0064,0.0034,0.0034,0.0036,0.0042,0.0065,0.0034,0.0091,0.0047,0.0038,0.0025,-0.0007,-0.0043,-0.0065,-0.0095,-0.0097,-0.0108,-0.011,-0.02,-0.0209,-0.0094,-0.0094,-0.0094,-0.0133,0,0.0075,0.0107,0.0091,0.0143,0.0171,0.0135,0.0165,0.0147,0.0137,0.0166,0.0116,0.0149,0.0075,0.009,0.0041,-0.003,-0.0063,-0.0051,-0.0135,-0.0137,-0.0216,-0.0212,-0.0193,-0.0234,-0.0134,-0.0134,-0.0134,0,0.0102,0.0126,0.0197,0.0247,0.026,0.0283,0.0331,0.0345,0.0334,0.0328,0.0327,0.0292,0.0258,0.0186,0.0082,0.0091,-0.0001,-0.007,-0.0074,-0.0172,-0.0227,-0.0241,-0.0238,-0.0135,-0.0135,-0.0135,-0.0135,0,0.0165,0.0203,0.0279,0.029,0.0327,0.0367,0.0399,0.0409,0.045,0.0452,0.0498,0.0422,0.0433,0.0294,0.0135,0.0109,0.0009,-0.0043,-0.02,-0.0207,-0.0214,-0.0223,-0.0111,-0.0111,-0.0111,-0.011,-0.011,0,0.0212,0.0266,0.0316,0.0354,0.0447,0.0459,0.0568,0.0561,0.0605,0.0661,0.0617,0.0657,0.046,0.0372,0.0187,-0.0005,0.0053,-0.0187,-0.0224,-0.0198,-0.0205,-0.0137,-0.0139,-0.0112,-0.0112,-0.0111,-0.0111,0,0.0257,0.0291,0.0371,0.0444,0.0481,0.0552,0.0673,0.0738,0.0787,0.0862,0.0877,0.0841,0.0697,0.0493,0.0267,0.0097,-0.0103,-0.0179,-0.014,-0.0175,-0.0319,-0.0319,-0.0373,-0.0376,-0.0379,-0.0382,-0.0384,0,0.0292,0.0329,0.0443,0.0502,0.0542,0.0662,0.0747,0.0812,0.0882,0.0967,0.1006,0.0929,0.0784,0.0463,0.0173,-0.0159,-0.0155,-0.0312,-0.0381,-0.0316,-0.0346,-0.0341,-0.0336,-0.0359,-0.0361,-0.0362,-0.0364,0,0.0309,0.0343,0.0396,0.0554,0.0656,0.0775,0.0898,0.0977,0.1047,0.1084,0.1074,0.0957,0.0683,0.0338,-0.0037,-0.0236,-0.0278,-0.0357,-0.0267,-0.0316,-0.0313,-0.034,-0.0334,-0.0376,-0.0375,-0.0374,-0.0373,-0.0373,0.0328,0.0335,0.042,0.0561,0.0704,0.0849,0.0957,0.1052,0.1124,0.1139,0.1057,0.0921,0.0608,0.008,-0.02,-0.0404,-0.0434,-0.0523,-0.0514,-0.0504,-0.0516,-0.0521,-0.0624,-0.0624,-0.0624,-0.0624,-0.0624,0,0.0302,0.0316,0.0426,0.0581,0.0746,0.0845,0.1025,0.1122,0.119,0.1126,0.1025,0.07,0.0344,0.0078,-0.0276,-0.0567,-0.0533,-0.061,-0.0504,-0.0493,-0.0483,-0.0488,-0.0591,-0.0591,-0.0591,-0.0591,0,0,0.029,0.0307,0.0334,0.0546,0.0725,0.0943,0.1059,0.1167,0.1211,0.1091,0.0984,0.0782,0.0428,0.0182,-0.0179,-0.0358,-0.0344,-0.0386,-0.0397,-0.0221,-0.0206,-0.0435,-0.0434,0,0,0,0,0]}],[{"header":{"parameterUnit":"m.s-1","parameterCategory":2,"la1":30.2991,"la2":30.254,"lo1":-89.0895,"lo2":-89.0444,"dy":0.0017,"dx":0.0017,"nx":28,"ny":28,"refTime":"2025-04-13T09:00:00:Z","depth":"4","parameterNumber":2,"parameterNumberName":"U-component_of_CURRENTS"},"data":[0,0,0,0,0,0,0,0,0,0,0,0,0,0,0,0,0,0,0,0,0,0,0,0,0,0,0,0,0,0,0,0,0,0,0,0,0,0,0,0,0,0,0,0,0,0,0,0,0,0,0,0,0,0,0,0,0,0,0.02,0.0199,0,0.0186,0.0186,0.0187,0.021,0.021,0.021,0.0211,0.0244,0.0245,0.0245,0,0,0,0,0,0,0,0,0,0,0,0,0,0.0313,0.0311,0.02,0.0199,0.0198,0.0186,0.0186,0.0187,0.021,0.021,0.021,0.0211,0.0244,0.0245,0.0246,0,0,0,0,0,0,0,0,0,0,0,0,0,0.0282,0.031,0.02,0.0205,0.0205,0.0186,0.0186,0.0187,0.0209,0.021,0.0211,0.0211,0.0244,0.0245,0.0246,0.024,0,0,0.0248,0.0249,0,0,0,0,0,0,0,0,0.0284,0.0279,0.0205,0.0204,0.0204,0.0196,0.0238,0.0205,0.0209,0.0213,0.0211,0.0211,0.0229,0.0231,0.0233,0.0242,0.0243,0.0248,0.0249,0.0249,0.0249,0,0,0,0,0,0,0,0.0286,0.028,0.0199,0.0204,0.0204,0.0231,0.0227,0.0233,0.0223,0.0212,0.0213,0.0204,0.023,0.0233,0.0234,0.0244,0.0248,0.0249,0.025,0.025,0.0296,0.0297,0,0,0,0,0,0,0.0273,0.0281,0.0199,0.0198,0.0241,0.0228,0.0224,0.0202,0.0221,0.0223,0.0203,0.0205,0.0231,0.0233,0.0236,0.0277,0.0249,0.025,0.025,0.0296,0.0296,0.0297,0,0,0,0,0,0,0.0276,0.0266,0.02,0.0237,0.023,0.0224,0.02,0.0201,0.0218,0.0213,0.0217,0.022,0.0231,0.0235,0.0245,0.0277,0.025,0.0251,0.0295,0.0296,0.0297,0.033,0,0,0,0,0,0,0.0279,0.0266,0.0245,0.0235,0.0227,0.02,0.0199,0.02,0.0208,0.0211,0.0228,0.0231,0.0232,0.0243,0.0246,0.0278,0.0252,0.0294,0.0295,0.0297,0.0328,0.0333,0.0336,0,0,0,0,0,0.0283,0.0242,0.0243,0.0233,0.0197,0.02,0.02,0.0202,0.0209,0.0219,0.0223,0.0231,0.0255,0.0244,0.0247,0.028,0.0293,0.0295,0.0296,0.0327,0.0332,0.0336,0,0,0,0,0,0,0.0274,0.024,0.0241,0.0191,0.0204,0.0203,0.019,0.021,0.0221,0.0224,0.023,0.0233,0.0252,0.0258,0.0247,0.0297,0.028,0.0282,0.0302,0.0307,0.0311,0.0394,0.0252,0,0,0,0,0,0.0262,0.0231,0.0222,0.0191,0.0185,0.0196,0.0195,0.0214,0.0219,0.0226,0.0236,0.0248,0.0258,0.0276,0.0277,0.0305,0.0344,0.0331,0.0335,0.0338,0.0408,0.0475,0.0492,0.0303,0.0303,0.0303,0,0,0.0244,0.0229,0.0206,0.0189,0.0187,0.0197,0.0198,0.0206,0.0241,0.0227,0.026,0.0253,0.0263,0.0288,0.0301,0.0302,0.04,0.034,0.0343,0.0413,0.0479,0.0498,0.0515,0.0304,0.0303,0.0303,0,0,0.0224,0.0185,0.0167,0.0176,0.0185,0.0196,0.0205,0.0219,0.0247,0.0271,0.0273,0.0299,0.03,0.0336,0.0348,0.0381,0.0405,0.0368,0.0475,0.0536,0.0554,0.057,0.0594,0.0612,0.0386,0.0386,0.0386,0,0.0224,0.0193,0.0168,0.0173,0.018,0.02,0.0216,0.0245,0.0275,0.0319,0.0285,0.034,0.0337,0.0413,0.0432,0.0397,0.0426,0.0451,0.0545,0.0562,0.0579,0.06,0.062,0.0388,0.0388,0.0387,0.0387,0,0.0194,0.0191,0.018,0.0193,0.0198,0.0216,0.0246,0.0293,0.0316,0.0357,0.0425,0.0421,0.0479,0.0463,0.0464,0.0582,0.0559,0.0526,0.054,0.06,0.0617,0.0637,0.039,0.039,0.0389,0.0389,0,0,0.0169,0.0168,0.0171,0.0196,0.0219,0.0228,0.0292,0.0369,0.0447,0.0471,0.0566,0.0593,0.0624,0.0646,0.0645,0.0714,0.0818,0.0694,0.0696,0.0731,0.0945,0.0825,0.0835,0.0803,0.0808,0.0812,0.0893,0,0.0181,0.0198,0.0191,0.0232,0.0245,0.0291,0.034,0.0418,0.0493,0.0588,0.0639,0.0708,0.0682,0.0721,0.0788,0.082,0.0883,0.0799,0.0875,0.0878,0.0775,0.0859,0.0827,0.0908,0.0913,0.0916,0.0918,0,0.0171,0.0186,0.0218,0.0274,0.0279,0.0318,0.0436,0.0499,0.0646,0.0709,0.0822,0.085,0.0981,0.092,0.1055,0.1005,0.1012,0.1015,0.1016,0.0932,0.0799,0.0847,0.0955,0.0952,0.0949,0.0947,0.0945,0,0.0177,0.0217,0.0249,0.0262,0.0313,0.037,0.0426,0.0555,0.0627,0.0834,0.0884,0.1032,0.108,0.1161,0.1153,0.1141,0.1252,0.1215,0.1108,0.1096,0.1162,0.1145,0.1323,0.1322,0.1322,0.1322,0.1322,0,0.0194,0.0219,0.0267,0.0286,0.0337,0.0386,0.0496,0.0596,0.0739,0.083,0.0959,0.1019,0.1149,0.119,0.1215,0.1214,0.1297,0.118,0.1138,0.1162,0.1144,0.1173,0.1154,0.1325,0.1324,0.1324,0.1323,0,0.0177,0.0214,0.0243,0.0308,0.0343,0.0381,0.0499,0.0581,0.073,0.0861,0.0922,0.1045,0.113,0.1177,0.1281,0.1249,0.1282,0.1237,0.1248,0.1194,0.1081,0.1063,0.1215,0.1212,0.121,0.1208,0.1206,0,0.0168,0.0194,0.0241,0.0258,0.0293,0.0375,0.0429,0.0579,0.0673,0.0844,0.0883,0.0994,0.1064,0.1105,0.1177,0.1234,0.1194,0.1212,0.1207,0.1142,0.1085,0.107,0.1056,0.1202,0.1202,0.1201,0.12,0,0.015,0.0167,0.0173,0.0207,0.0259,0.0311,0.0424,0.0478,0.0655,0.0763,0.0864,0.093,0.0984,0.1066,0.108,0.1109,0.1235,0.1187,0.1194,0.1189,0.1127,0.107,0.1059,0.1192,0.1193,0.1194,0.1194,0,0.0113,0.0104,0.0128,0.0144,0.0192,0.025,0.0315,0.0427,0.0524,0.0734,0.075,0.0858,0.0965,0.0993,0.1011,0.1039,0.1058,0.1058,0.1072,0.1082,0.1,0.0898,0.0907,0,0,0,0,0,0.0072,0.0076,0.0083,0.0105,0.0144,0.019,0.0303,0.0381,0.0543,0.0597,0.0695,0.0755,0.0837,0.0875,0.0885,0.095,0.1042,0.0957,0.1043,0.1145,0.1155,0.1069,0,0,0,0,0,0,0.0052,0.0057,0.0057,0.0072,0.0092,0.0155,0.0221,0.0329,0.0385,0.0543,0.0578,0.071,0.0773,0.0818,0.0865,0.0884,0.0927,0.1033,0.1032,0.1139,0.1148,0.1156,0.1071,0,0,0,0,0]},{"header":{"parameterUnit":"m.s-1","parameterCategory":2,"la1":30.2991,"la2":30.254,"lo1":-89.0895,"lo2":-89.0444,"dy":0.0017,"dx":0.0017,"nx":28,"ny":28,"refTime":"2025-04-13T09:00:00:Z","depth":"4","parameterNumber":3,"parameterNumberName":"V-component_of_CURRENTS"},"data":[0,0,0,0,0,0,0,0,0,0,0,0,0,0,0,0,0,0,0,0,0,0,0,0,0,0,0,0,0,0,0,0,0,0,0,0,0,0,0,0,0,0,0,0,0,0,0,0,0,0,0,0,0,0,0,0,0,0,-0.0017,-0.0017,0,-0.0072,-0.0073,-0.0074,-0.0181,-0.0182,-0.0183,-0.0184,-0.0292,-0.0294,-0.0296,0,0,0,0,0,0,0,0,0,0,0,0,0,-0.0126,-0.0123,-0.0017,-0.0017,-0.0016,-0.0071,-0.0073,-0.0075,-0.018,-0.0182,-0.0183,-0.0185,-0.0292,-0.0294,-0.0296,0,0,0,0,0,0,0,0,0,0,0,0,0,-0.0129,-0.0123,-0.0017,-0.0068,-0.0073,-0.0071,-0.0073,-0.0075,-0.018,-0.0182,-0.0184,-0.0185,-0.0291,-0.0294,-0.0296,-0.0279,0,0,-0.0304,-0.0306,0,0,0,0,0,0,0,0,-0.0128,-0.0126,-0.0061,-0.0065,-0.0069,-0.0112,-0.0151,-0.0142,-0.018,-0.015,-0.0184,-0.0186,-0.0229,-0.0237,-0.0257,-0.0284,-0.0288,-0.0305,-0.0306,-0.0308,-0.0308,0,0,0,0,0,0,0,-0.0128,-0.0125,-0.0049,-0.006,-0.0065,-0.0129,-0.0132,-0.0151,-0.0188,-0.0153,-0.0158,-0.0147,-0.0233,-0.0254,-0.026,-0.029,-0.0305,-0.0307,-0.0309,-0.031,-0.0392,-0.0393,0,0,0,0,0,0,-0.0091,-0.0123,-0.0047,-0.005,-0.0092,-0.0125,-0.0128,-0.0105,-0.0187,-0.0198,-0.0146,-0.0152,-0.0249,-0.0257,-0.0265,-0.0318,-0.0308,-0.031,-0.0312,-0.0392,-0.0392,-0.0393,0,0,0,0,0,0,-0.0093,-0.0083,-0.0045,-0.0081,-0.0079,-0.0119,-0.0094,-0.0105,-0.0147,-0.0179,-0.0194,-0.0177,-0.025,-0.0261,-0.0304,-0.032,-0.0311,-0.0314,-0.0391,-0.0392,-0.0393,-0.0379,0,0,0,0,0,0,-0.0096,-0.0084,-0.0072,-0.0077,-0.0075,-0.0047,-0.0091,-0.0104,-0.0131,-0.0141,-0.021,-0.0221,-0.0253,-0.03,-0.0307,-0.0324,-0.0316,-0.039,-0.0391,-0.0392,-0.0379,-0.0379,-0.038,0,0,0,0,0,-0.01,-0.006,-0.0071,-0.0063,-0.0052,-0.0045,-0.0052,-0.0095,-0.0131,-0.0143,-0.0199,-0.022,-0.0312,-0.0302,-0.031,-0.0328,-0.039,-0.0391,-0.0392,-0.0378,-0.0379,-0.038,0,0,0,0,0,0,-0.0101,-0.0066,-0.0079,-0.0032,-0.0042,-0.006,-0.0065,-0.0098,-0.0152,-0.0174,-0.0223,-0.0236,-0.0284,-0.0302,-0.029,-0.0356,-0.0355,-0.0358,-0.0342,-0.0343,-0.0343,-0.0334,-0.0318,0,0,0,0,0,-0.009,-0.0053,-0.0046,-0.0012,-0.0014,-0.0047,-0.0056,-0.0086,-0.0119,-0.0148,-0.0191,-0.0243,-0.029,-0.0314,-0.035,-0.0376,-0.04,-0.0395,-0.0395,-0.0396,-0.0394,-0.0438,-0.0443,-0.0397,-0.0397,-0.0397,0,0,-0.0079,-0.0054,-0.0035,-0.0011,-0.0026,-0.0043,-0.0061,-0.007,-0.0106,-0.0146,-0.0211,-0.0244,-0.0297,-0.034,-0.0361,-0.036,-0.0423,-0.0397,-0.0397,-0.0395,-0.044,-0.0445,-0.0448,-0.0398,-0.0398,-0.0398,0,0,-0.0052,-0.002,-0.0003,-0.0013,-0.002,-0.0035,-0.0039,-0.0067,-0.0104,-0.0146,-0.02,-0.0242,-0.0298,-0.0346,-0.0377,-0.0398,-0.0425,-0.0408,-0.0402,-0.0446,-0.045,-0.0453,-0.0493,-0.0501,-0.0406,-0.0406,-0.0406,0,-0.0055,-0.0029,-0.0001,-0.0009,-0.0025,-0.0036,-0.0062,-0.0087,-0.0133,-0.0161,-0.0166,-0.0271,-0.0306,-0.038,-0.0385,-0.04,-0.0423,-0.0395,-0.0446,-0.045,-0.0454,-0.0494,-0.0502,-0.0406,-0.0406,-0.0406,-0.0406,0,-0.004,-0.0038,-0.0026,-0.0042,-0.0051,-0.0064,-0.0089,-0.0118,-0.015,-0.0177,-0.0241,-0.0284,-0.0346,-0.0361,-0.0378,-0.043,-0.0436,-0.0442,-0.0441,-0.0458,-0.0499,-0.0508,-0.0405,-0.0405,-0.0406,-0.0406,0,0,-0.0029,-0.002,-0.0027,-0.0055,-0.0079,-0.0085,-0.013,-0.0171,-0.0209,-0.0239,-0.0299,-0.0351,-0.0357,-0.0392,-0.042,-0.0445,-0.0488,-0.0444,-0.0446,-0.0478,-0.058,-0.0522,-0.0527,-0.0497,-0.0499,-0.05,-0.0599,0,-0.0054,-0.0061,-0.0059,-0.0105,-0.0127,-0.0153,-0.0192,-0.0228,-0.0252,-0.0301,-0.0341,-0.0391,-0.0376,-0.0403,-0.0427,-0.0472,-0.0509,-0.046,-0.0564,-0.0567,-0.051,-0.0535,-0.0504,-0.0605,-0.0607,-0.0609,-0.061,0,-0.0079,-0.0077,-0.0113,-0.0151,-0.0165,-0.0199,-0.0259,-0.0297,-0.0349,-0.0363,-0.0401,-0.042,-0.0468,-0.0452,-0.0528,-0.0493,-0.0535,-0.0563,-0.0568,-0.0523,-0.0525,-0.0586,-0.0627,-0.0625,-0.0624,-0.0623,-0.0622,0,-0.0108,-0.0132,-0.0158,-0.0175,-0.021,-0.0251,-0.0282,-0.0327,-0.0356,-0.0406,-0.0424,-0.0469,-0.0515,-0.0547,-0.0579,-0.0558,-0.0666,-0.0655,-0.0654,-0.0652,-0.068,-0.0675,-0.073,-0.073,-0.073,-0.073,-0.0729,0,-0.0146,-0.0171,-0.0176,-0.0201,-0.0247,-0.0276,-0.0332,-0.0361,-0.0409,-0.0411,-0.046,-0.0463,-0.0537,-0.0592,-0.0608,-0.0649,-0.0696,-0.0657,-0.0673,-0.0673,-0.0666,-0.0687,-0.068,-0.0733,-0.0733,-0.0732,-0.0731,0,-0.0172,-0.0178,-0.021,-0.0246,-0.0266,-0.0302,-0.0355,-0.0366,-0.0425,-0.0436,-0.0449,-0.0499,-0.0532,-0.0616,-0.0691,-0.0697,-0.0735,-0.0754,-0.0756,-0.077,-0.0687,-0.0679,-0.0749,-0.0748,-0.0747,-0.0746,-0.0745,0,-0.017,-0.0195,-0.0233,-0.0235,-0.0254,-0.0302,-0.0314,-0.0372,-0.0358,-0.0408,-0.0391,-0.0475,-0.0488,-0.057,-0.065,-0.0733,-0.0736,-0.078,-0.0713,-0.0681,-0.069,-0.0683,-0.0677,-0.0744,-0.0743,-0.0743,-0.0743,0,-0.017,-0.0195,-0.02,-0.0204,-0.0219,-0.0232,-0.0249,-0.0249,-0.0271,-0.0339,-0.0301,-0.0351,-0.0427,-0.0495,-0.0611,-0.0648,-0.0747,-0.0769,-0.077,-0.0708,-0.0675,-0.0683,-0.0678,-0.0739,-0.074,-0.074,-0.074,0,-0.0165,-0.0148,-0.0149,-0.0154,-0.0151,-0.0125,-0.0165,-0.0133,-0.0157,-0.02,-0.0171,-0.0264,-0.0344,-0.0452,-0.0514,-0.0592,-0.0584,-0.0579,-0.059,-0.0595,-0.0508,-0.0442,-0.0451,0,0,0,0,0,-0.0162,-0.0115,-0.0088,-0.0079,-0.0063,-0.0077,-0.0076,-0.0103,-0.0139,-0.0079,-0.0127,-0.0159,-0.0266,-0.0336,-0.0394,-0.0499,-0.0617,-0.0569,-0.062,-0.0719,-0.0723,-0.064,0,0,0,0,0,0,-0.0143,-0.0108,-0.0064,0.0003,0.0015,0.0032,0.0029,-0.0001,0.0023,-0.0024,-0.0082,-0.0151,-0.0273,-0.0229,-0.0388,-0.0421,-0.045,-0.0651,-0.0651,-0.0717,-0.0721,-0.0724,-0.064,0,0,0,0,0]}]]